User: anonymous   Login
Location: Unspecified
(0.0000°N, 0.0000°E)
Time: 04:10:03
(UTC+00:00)
Language:

STARLINK-32781 - Orbit

View from above orbital plane
View from above orbital plane
View from above satellite
View from above satellite

Ground track
Ground track

The orbit is defined by the following mean orbital elements,

1 62848U          26145.34169560 +.00000000 +00000-0 +68496-3 0 00009
2 62848  43.0020  16.1111 0001043 281.1854  78.8880 15.27598752    07
Epoch (UTC): 25 May 2026 08:12:02
Eccentricity: 0.0001043
inclination: 43.0020°
perigee height: 482 km
apogee height: 484 km
right ascension of ascending node: 16.1111°
argument of perigee: 281.1854°
revolutions per day: 15.27598752
mean anomaly at epoch: 78.8880°

The dashed part of the orbit path shows where the satellite is in the earth's shadow,  

DLR